Weather History for KDLF - April, 2013

Change the Weather History Date:

Monday, April 22, 2013

  Actual Average Record
Temperature  
Mean Temperature 76 °F -  
Max Temperature 89 °F 85 °F 100 °F (1999)
Min Temperature 64 °F 63 °F 50 °F (1998)
Cooling Degree Days 12    
Growing Degree Days 26 (Base 50)    
Moisture  
Dew Point 57 °F    
Average Humidity 55    
Maximum Humidity 77    
Minimum Humidity 30    
Precipitation  
Precipitation 0.00 in - - ()
Sea Level Pressure  
Sea Level Pressure 29.94 in    
Wind  
Wind Speed 17 mph (SSE)    
Max Wind Speed 22 mph    
Max Gust Speed 28 mph    
Visibility 10 miles    
Events Rain    
Averages and records for this station are not official NWS values.
T = Trace of Precipitation, MM = Missing Value Source: NWS Daily Summary

Daily Weather History Graph

Daily Weather History Graph

Search for Another Location

Airport or City:

Trip Planner

Search our weather history database for the weather conditions in past years. The results will help you decide how hot, cold, wet, or windy it might be!

Date:

Astronomy

Apr. 22, 2013 Rise Set
Actual Time 7:09 AM CDT 8:14 PM CDT
Civil Twilight 6:44 AM CDT 8:38 PM CDT
Nautical Twilight 6:15 AM CDT 9:08 PM CDT
Astronomical Twilight 5:45 AM CDT 9:38 PM CDT
Moon 5:17 PM CDT (4/22) 4:49 AM CDT (4/22)
Length of Visible Light 13h 54m
Length of Day
13h 04m
Waxing Gibbous, 88% of the Moon is Illuminated
Apr 22
Waxing Gibbous
Apr 25
Full
May 2
Last Quarter
May 9
New
May 17
First Quarter

Hourly Weather History & Observations

Time (CDT) Temp. Heat Index Dew Point Humidity Pressure Visibility Wind Dir Wind Speed Gust Speed Precip Events Conditions
12:58 AM 72.3 °F - 51.1 °F 47% 29.98 in 10.0 mi SE 16.1 mph - N/A   Clear
1:58 AM 69.1 °F - 55.0 °F 61% 29.98 in 10.0 mi SE 18.4 mph 27.6 mph N/A   Clear
2:58 AM 66.2 °F - 55.9 °F 69% 29.99 in 10.0 mi SE 21.9 mph 26.5 mph N/A   Clear
3:33 AM 64.4 °F - 57.2 °F 77% 30.02 in 10.0 mi SE 19.6 mph 26.5 mph N/A   Mostly Cloudy
3:58 AM 65.1 °F - 56.8 °F 75% 29.98 in 10.0 mi SE 21.9 mph 27.6 mph N/A   Overcast
4:58 AM 65.1 °F - 57.6 °F 76% 29.99 in 10.0 mi SE 17.3 mph - N/A   Overcast
5:38 AM 64.4 °F - 57.2 °F 77% 30.04 in 8.0 mi SE 16.1 mph - N/A   Overcast
5:58 AM 64.9 °F - 57.7 °F 77% 30.01 in 6.0 mi SE 13.8 mph - N/A   Haze
6:03 AM 64.4 °F - 57.2 °F 77% 30.04 in 10.0 mi SE 17.3 mph - N/A   Overcast
6:58 AM 65.1 °F - 57.9 °F 77% 30.02 in 8.0 mi SSE 12.7 mph - N/A   Overcast
7:58 AM 65.3 °F - 58.1 °F 77% 30.03 in 8.0 mi SSE 11.5 mph - N/A   Overcast
8:58 AM 66.7 °F - 57.9 °F 73% 30.03 in 10.0 mi SSE 13.8 mph - N/A   Overcast
9:58 AM 68.4 °F - 58.1 °F 70% 30.03 in 10.0 mi South 16.1 mph - N/A   Overcast
10:58 AM 71.2 °F - 58.1 °F 63% 30.03 in 10.0 mi South 18.4 mph - N/A   Overcast
11:28 AM 73.4 °F - 57.2 °F 57% 30.06 in 10.0 mi South 15.0 mph 24.2 mph N/A   Overcast
11:58 AM 73.9 °F - 58.3 °F 58% 30.02 in 10.0 mi South 13.8 mph 24.2 mph N/A   Overcast
12:29 PM 77.0 °F - 59.0 °F 54% 30.03 in 10.0 mi South 16.1 mph 24.2 mph N/A   Scattered Clouds
12:58 PM 78.8 °F - 58.6 °F 50% 29.98 in 10.0 mi SSE 16.1 mph - N/A   Partly Cloudy
1:24 PM 78.8 °F - 59.0 °F 51% 29.99 in 10.0 mi South 17.3 mph - N/A   Partly Cloudy
1:58 PM 81.5 °F 81.7 °F 58.8 °F 46% 29.94 in 10.0 mi SSE 15.0 mph 20.7 mph N/A   Clear
2:58 PM 84.4 °F 83.7 °F 57.7 °F 40% 29.90 in 10.0 mi South 17.3 mph 23.0 mph N/A   Clear
3:58 PM 86.9 °F 85.5 °F 56.3 °F 35% 29.86 in 10.0 mi South 15.0 mph 26.5 mph N/A   Clear
4:58 PM 88.7 °F 86.9 °F 55.0 °F 32% 29.82 in 10.0 mi South 16.1 mph 24.2 mph N/A   Clear
5:58 PM 89.1 °F 86.9 °F 54.1 °F 30% 29.78 in 10.0 mi SSE 18.4 mph 24.2 mph N/A   Clear
6:03 PM 89.6 °F 87.7 °F 55.4 °F 31% 29.82 in 10.0 mi South 17.3 mph 23.0 mph N/A Rain Light Rain
6:06 PM 89.6 °F 87.7 °F 55.4 °F 31% 29.82 in 10.0 mi South 18.4 mph 23.0 mph N/A   Clear
6:58 PM 88.5 °F 86.9 °F 55.6 °F 33% 29.78 in 10.0 mi South 17.3 mph - 0.00 in   Clear
7:58 PM 86.0 °F 84.5 °F 55.0 °F 35% 29.78 in 10.0 mi SE 17.3 mph - N/A   Clear
8:58 PM 82.8 °F 81.9 °F 54.5 °F 38% 29.80 in 10.0 mi SE 11.5 mph - N/A   Clear
9:58 PM 81.0 °F 80.8 °F 55.6 °F 42% 29.81 in 10.0 mi SE 12.7 mph - N/A   Clear
10:58 PM 77.5 °F - 54.9 °F 45% 29.82 in 10.0 mi SE 9.2 mph - N/A   Clear
11:58 PM 74.3 °F - 55.4 °F 52% 29.82 in 10.0 mi SE 9.2 mph - N/A   Clear